Weather in Voskresensk

Russia / Kaluga Oblast     54°07′37″N   34°20′30″E
temp.,
°C
wind,
m/s
gust,
m/s
humid.,
%
clouds,
%
prec.,
mm/h
press.,
hPa
HPBL,
m
6 march, sat
sat600:00−8nw239290 0.0 101654
03:00−6nnw489394 0.3 1018338
06:00−12nw338923 0.0 101839
09:00−10wnw359229 0.0 1020135
12:00−5wnw46810 0.0 1020770
15:00−4wnw577534 0.1 10191158
18:00−7w378191 0.1 1018145
21:00−9wsw478855 0.1 1018120
7 march, sun
sun700:00−9sw5138513 0.0 1015322
03:00−7sw7158457 0.0 1012627
06:00−5sw81684100 0.2 1007907
09:00−4sw101792100 1.1 10021071
12:00−2wsw111993100 1.9 9991329
15:00−3nw61195100 5.0 998778
18:00−5w51081100 0.4 999400
21:00−6wsw6149189 0.6 1000735
8 march, mon
mon800:00−7w6148172 0.0 999487
03:00−6w7138969 0.1 1000959
06:00−10wnw8158153 0.0 1002816
09:00−11wnw5128849 0.0 1006557
12:00−7wnw698479 0.0 1008897
15:00−6wnw688389 0.1 10091052
18:00−7wnw3793100 0.2 1010299
21:00−11nnw239595 0.3 101326
9 march, tue
tue900:00−12nnw239683 0.0 101429
03:00−13n239687 0.0 101547
06:00−13n3497100 0.0 101675
09:00−12n3595100 0.1 1018243
12:00−10nnw3586100 0.0 1019607
15:00−8nnw3580100 0.1 1020888
18:00−11nw3487100 0.1 102184
21:00−15nw228974 0.1 102320
10 march, wed
wed1000:00−13wsw229164 0.0 102326
03:00−12sw359282 0.0 102399
06:00−11sw4991100 0.1 1022309
09:00−9sw51189100 0.2 1021432
12:00−6wsw5980100 0.0 1020826
15:00−4wsw5890100 0.1 1019802
18:00−5wsw4995100 0.8 1018582
21:00−6sw3896100 1.5 1019313